EN

Hourly Weather Alphen aan den Rijn

Today, 28 January, Thursday

Time Temperature Precipitation Wind Pressure Humidity
00:00 +6°C° 0 mm 1 mps 757 mmHg 97%
01:00 +6°C° 0 mm 1 mps 756 mmHg 97%
02:00 +6°C° 0 mm 1 mps 755 mmHg 97%
03:00 +6°C° 0 mm 1 mps 754 mmHg 97%
04:00 +5°C° 0.6 mm 2 mps 753 mmHg 97%
05:00 +4°C° 0.6 mm 3 mps 753 mmHg 97%
06:00 +4°C° 0.6 mm 3 mps 752 mmHg 97%
07:00 +4°C° 1.4 mm 4 mps 751 mmHg 97%
08:00 +4°C° 1.4 mm 4 mps 750 mmHg 96%
09:00 +3°C° 1.4 mm 5 mps 749 mmHg 95%
10:00 +4°C° 1.4 mm 4 mps 749 mmHg 95%
11:00 +4°C° 1.4 mm 4 mps 749 mmHg 95%
12:00 +4°C° 1.4 mm 4 mps 749 mmHg 95%
13:00 +4°C° 0.2 mm 3 mps 749 mmHg 95%
14:00 +4°C° 0.2 mm 3 mps 750 mmHg 95%
15:00 +5°C° 0.2 mm 2 mps 750 mmHg 95%
16:00 +5°C° 0 mm 2 mps 750 mmHg 95%
17:00 +5°C° 0 mm 2 mps 751 mmHg 94%
18:00 +5°C° 0 mm 2 mps 751 mmHg 94%
19:00 +5°C° 0 mm 2 mps 751 mmHg 95%
20:00 +5°C° 0 mm 2 mps 751 mmHg 95%
21:00 +4°C° 0 mm 3 mps 750 mmHg 96%
22:00 +4°C° 0 mm 3 mps 750 mmHg 96%
23:00 +5°C° 0 mm 3 mps 749 mmHg 97%

Tomorrow, 29 January, Friday

Time Temperature Precipitation Wind Pressure Humidity
00:00 +5°C° 0 mm 3 mps 749 mmHg 97%
01:00 +7°C° 1.8 mm 3 mps 747 mmHg 97%
02:00 +6°C° 1.8 mm 4 mps 746 mmHg 97%
03:00 +7°C° 1.8 mm 4 mps 744 mmHg 98%
04:00 +7°C° 0.8 mm 6 mps 744 mmHg 95%
05:00 +6°C° 0.8 mm 7 mps 744 mmHg 92%
06:00 +7°C° 0.8 mm 9 mps 744 mmHg 89%
07:00 +6°C° 0 mm 8 mps 744 mmHg 88%
08:00 +6°C° 0 mm 8 mps 744 mmHg 86%
09:00 +6°C° 0 mm 8 mps 744 mmHg 85%
10:00 +6°C° 0 mm 7 mps 744 mmHg 83%
11:00 +8°C° 0 mm 7 mps 744 mmHg 81%
12:00 +8°C° 0 mm 7 mps 744 mmHg 78%
13:00 +8°C° 0.1 mm 6 mps 745 mmHg 80%
14:00 +7°C° 0.1 mm 6 mps 745 mmHg 82%
15:00 +7°C° 0.1 mm 5 mps 745 mmHg 84%
16:00 +7°C° 0.1 mm 5 mps 746 mmHg 85%
17:00 +7°C° 0.1 mm 5 mps 746 mmHg 85%
18:00 +6°C° 0.1 mm 5 mps 747 mmHg 86%
19:00 +6°C° 0 mm 5 mps 748 mmHg 86%
20:00 +6°C° 0 mm 5 mps 748 mmHg 86%
21:00 +6°C° 0 mm 5 mps 749 mmHg 86%
22:00 +5°C° 0.1 mm 5 mps 749 mmHg 85%
23:00 +3°C° 0.1 mm 5 mps 750 mmHg 85%

Day after tomorrow, 30 January, Saturday

Time Temperature Precipitation Wind Pressure Humidity
00:00 +3°C° 0.1 mm 4 mps 750 mmHg 85%
01:00 +1°C° 0 mm 5 mps 750 mmHg 82%
02:00 0°C° 0 mm 5 mps 750 mmHg 79%
03:00 0°C° 0 mm 5 mps 751 mmHg 77%
04:00 -1°C° 0 mm 5 mps 750 mmHg 77%
05:00 -1°C° 0 mm 5 mps 750 mmHg 77%
06:00 -3°C° 0 mm 6 mps 750 mmHg 77%
07:00 -3°C° 0 mm 6 mps 750 mmHg 76%
08:00 -3°C° 0 mm 6 mps 749 mmHg 75%
09:00 -3°C° 0 mm 7 mps 749 mmHg 74%
10:00 -2°C° 0 mm 7 mps 748 mmHg 71%
11:00 -2°C° 0 mm 7 mps 748 mmHg 69%
12:00 -1°C° 0 mm 7 mps 748 mmHg 66%
13:00 -1°C° 0 mm 7 mps 748 mmHg 66%
14:00 -1°C° 0 mm 7 mps 747 mmHg 65%
15:00 -1°C° 0 mm 7 mps 747 mmHg 65%
16:00 -1°C° 0 mm 7 mps 748 mmHg 65%
17:00 -1°C° 0 mm 6 mps 748 mmHg 66%
18:00 -2°C° 0 mm 6 mps 749 mmHg 66%
19:00 -2°C° 0 mm 6 mps 749 mmHg 69%
20:00 -2°C° 0 mm 6 mps 749 mmHg 72%
21:00 -2°C° 0 mm 6 mps 749 mmHg 75%
22:00 -3°C° 0 mm 6 mps 749 mmHg 76%
23:00 -3°C° 0 mm 6 mps 749 mmHg 76%

31 January, Sunday

Time Temperature Precipitation Wind Pressure Humidity
00:00 -3°C° 0 mm 6 mps 750 mmHg 77%
01:00 -2°C° 0 mm 5 mps 750 mmHg 78%
02:00 -2°C° 0 mm 5 mps 750 mmHg 80%
03:00 -4°C° 0 mm 5 mps 750 mmHg 82%
04:00 -4°C° 0 mm 5 mps 750 mmHg 82%
05:00 -4°C° 0 mm 5 mps 750 mmHg 82%
06:00 -4°C° 0 mm 5 mps 750 mmHg 82%
07:00 -4°C° 0 mm 5 mps 750 mmHg 80%
08:00 -4°C° 0 mm 5 mps 750 mmHg 78%
09:00 -4°C° 0 mm 5 mps 750 mmHg 76%
10:00 -2°C° 0 mm 5 mps 750 mmHg 71%
11:00 -1°C° 0 mm 4 mps 749 mmHg 65%
12:00 0°C° 0 mm 4 mps 749 mmHg 60%
13:00 0°C° 0 mm 4 mps 749 mmHg 59%
14:00 0°C° 0 mm 4 mps 748 mmHg 58%
15:00 0°C° 0 mm 4 mps 747 mmHg 58%
16:00 0°C° 0 mm 4 mps 747 mmHg 60%
17:00 -1°C° 0 mm 5 mps 747 mmHg 63%
18:00 -2°C° 0 mm 5 mps 747 mmHg 65%
19:00 -2°C° 0 mm 5 mps 747 mmHg 67%
20:00 -2°C° 0 mm 5 mps 746 mmHg 68%
21:00 -2°C° 0 mm 5 mps 746 mmHg 69%
22:00 -4°C° 0 mm 5 mps 746 mmHg 71%
23:00 -4°C° 0 mm 5 mps 746 mmHg 72%

1 February, Monday

Time Temperature Precipitation Wind Pressure Humidity
00:00 -4°C° 0 mm 5 mps 746 mmHg 74%
01:00 -4°C° 0 mm 5 mps 746 mmHg 73%
02:00 -3°C° 0 mm 4 mps 747 mmHg 73%
03:00 -3°C° 0 mm 4 mps 747 mmHg 73%
04:00 -3°C° 0 mm 4 mps 747 mmHg 70%
05:00 -3°C° 0 mm 4 mps 748 mmHg 67%
06:00 -4°C° 0 mm 5 mps 748 mmHg 64%
07:00 -3°C° 0 mm 4 mps 749 mmHg 60%
08:00 -2°C° 0 mm 4 mps 750 mmHg 56%
09:00 -2°C° 0 mm 4 mps 750 mmHg 52%
10:00 -1°C° 0 mm 4 mps 751 mmHg 48%
11:00 +1°C° 0 mm 3 mps 752 mmHg 44%
12:00 +2°C° 0 mm 3 mps 752 mmHg 41%
13:00 +2°C° 0 mm 3 mps 753 mmHg 45%
14:00 +3°C° 0 mm 2 mps 753 mmHg 49%
15:00 +3°C° 0 mm 2 mps 754 mmHg 53%
16:00 +3°C° 0 mm 1 mps 755 mmHg 58%
17:00 +3°C° 0 mm 1 mps 755 mmHg 64%
18:00 +1°C° 0 mm 0 mps 756 mmHg 70%
19:00 0°C° 0 mm 0 mps 757 mmHg 72%
20:00 +1°C° 0 mm 1 mps 757 mmHg 73%
21:00 +1°C° 0 mm 1 mps 758 mmHg 75%
22:00 +1°C° 0 mm 1 mps 758 mmHg 75%
23:00 -1°C° 0 mm 2 mps 758 mmHg 75%

2 February, Tuesday

Time Temperature Precipitation Wind Pressure Humidity
00:00 -1°C° 0 mm 2 mps 758 mmHg 75%
01:00 -1°C° 0 mm 2 mps 758 mmHg 71%
02:00 -1°C° 0 mm 2 mps 758 mmHg 68%
03:00 -1°C° 0 mm 3 mps 758 mmHg 65%
04:00 -1°C° 0 mm 3 mps 757 mmHg 61%
05:00 -2°C° 0 mm 4 mps 757 mmHg 56%
06:00 -2°C° 0 mm 5 mps 756 mmHg 52%
07:00 -2°C° 0.2 mm 5 mps 755 mmHg 63%
08:00 -3°C° 0.2 mm 6 mps 754 mmHg 74%
09:00 -3°C° 0.2 mm 6 mps 754 mmHg 86%
10:00 -2°C° 1.3 mm 6 mps 752 mmHg 89%
11:00 -1°C° 1.3 mm 7 mps 751 mmHg 92%
12:00 0°C° 1.3 mm 7 mps 750 mmHg 95%
13:00 +2°C° 0.9 mm 7 mps 749 mmHg 96%
14:00 +3°C° 0.9 mm 7 mps 748 mmHg 96%
15:00 +4°C° 0.9 mm 6 mps 747 mmHg 97%
16:00 +5°C° 0 mm 7 mps 747 mmHg 95%
17:00 +6°C° 0 mm 7 mps 747 mmHg 93%
18:00 +6°C° 0 mm 8 mps 748 mmHg 91%
19:00 +6°C° 0 mm 8 mps 748 mmHg 90%
20:00 +6°C° 0 mm 8 mps 749 mmHg 89%
21:00 +5°C° 0 mm 8 mps 749 mmHg 89%
22:00 +5°C° 0 mm 8 mps 750 mmHg 89%
23:00 +5°C° 0 mm 8 mps 750 mmHg 89%
Show more